ATLAS 5 CENTAUR DEB, 46656

Orbit data source: Space-Track

ATLAS 5 CENTAUR DEB, 46656 is space debris in HEO originally from a launch on Wed, 17 Oct 2018 UTC launched from the Air Force Eastern Test Range (AFETR). Debris objects in space refer to the collection of defunct objects orbiting the Earth. Examples of debris include non-operational satellites, rocket bodies, and fragments generated from explosions, collisions, or faulty payload assembly.

Loading next visibility...
Identifier
46656, 2018-079CJ
Orbit
HEO
Country
Flag of USUS
Related business
Flag of USUnited Launch Alliance/Lockheed Martin (US)
Manufacturer
ULA Decatur
Mission
Spacecraft
Bus & Motor
Unknown
Mass
Unknown
Launch date (UTC)
2018-10-17 (8 years ago)
Launch vehicle
Unknown
Launch site
Air Force Eastern Test Range (AFETR)
Object type
Payload
Rocket body
Debris
Shape & HBR
Unknown shape, 1.1 m
Radar Cross Section
RCS unknown

Expand to show TLE details & history
Last TLE update: 21 hours ago

TLE from 21 hours ago
0 ATLAS 5 CENTAUR DEB
1 46656U 18079CJ  26124.53316204 -.00000148  00000-0  00000+0 0  9994
2 46656  13.5072   4.0165 4549437  20.1770 353.2822  1.96971127 40097
Epoch: 2026-05-04T12:47Z
TLE epoch observation values (Epoch: 2026-05-04T12:47:45.200Z)
Latitude
-0.00004°
Longitude
-50.36615°
Altitude
8,541.474 km
Speed
6.213 km/s
True Right ascension
00h 15m 58s
True Declination
0° 00' 00"
Sunlit
Object was in daylight at epoch
Visualization orbit readout
Latitude
Unknown
Longitude
Unknown
Altitude
Unknown
Speed
Unknown
Apparent Right ascension
Unknown
Apparent Declination
Unknown
Sunlit
N/A
Visualization observer readout
Local Sidereal Time
17:56:04
Azimuth
Unknown
Elevation
Unknown
Doppler factor
Unknown
Orbital elements
Apogee altitude
32,737.253 km
Perigee altitude
8,275.413 km
Semi-major axis
26,884.47 km
Eccentricity
0.45494
Inclination
13.5072°
RAAN
4.0165°
Arg. of periapsis
20.177°
True anomaly
340.11567°
Mean anomaly
353.2822°
Eccentric anomaly
347.7527°
Mean motion
0.49237 °/min
Orbital period
731.16 mins
BSTAR
0
Loading maneuver chart data...
Computing Atmospheric mass density...

Documentation

Showing up to 5 results
|